| time (UTC) | temp F | wind direction | speed MPH | gust MPH | rain 1hr in | rain 24hr in | rain mn in | humidity % | barometer mb |
| 20260510044557 | 57 | 96 | 0.0 | 2.0 | 0.02 | 0.02 | 0.02 | 86 | 1015.1 |
| 20260510043048 | 58 | 96 | 0.0 | 4.0 | 0.01 | 0.01 | 0.01 | 85 | 1015.0 |
| 20260510041553 | 58 | 96 | 0.0 | 0.0 | 0.01 | 0.01 | 0.01 | 82 | 1014.2 |
| 20260510040045 | 59 | 96 | 0.0 | 0.0 | 0.00 | 0.00 | 0.00 | 78 | 1014.2 |
| 20260510034542 | 59 | 96 | 0.0 | 0.0 | 0.00 | 0.00 | 0.00 | 76 | 1014.2 |
| 20260510033053 | 59 | 96 | 0.0 | 0.0 | 0.00 | 0.00 | 0.00 | 74 | 1014.2 |
| 20260510031541 | 58 | 96 | 0.0 | 0.0 | 0.00 | 0.00 | 0.00 | 78 | 1013.7 |
| 20260510030038 | 58 | 96 | 0.0 | 0.0 | 0.00 | 0.00 | 0.00 | 80 | 1013.7 |
| 20260510024539 | 58 | 96 | 0.0 | 0.0 | 0.00 | 0.00 | 0.00 | 79 | 1013.9 |
| 20260510023035 | 58 | 96 | 0.0 | 0.0 | 0.00 | 0.00 | 0.00 | 79 | 1014.1 |
| 20260510021538 | 58 | 96 | 0.0 | 0.0 | 0.00 | 0.00 | 0.00 | 79 | 1014.2 |
| 20260510020033 | 58 | 96 | 0.0 | 0.0 | 0.00 | 0.00 | 0.00 | 79 | 1014.4 |
| 20260510014533 | 57 | 96 | 0.0 | 0.0 | 0.00 | 0.00 | 0.00 | 81 | 1014.7 |
| 20260510013036 | 57 | 96 | 0.0 | 0.0 | 0.00 | 0.00 | 0.00 | 81 | 1014.8 |
| 20260510011527 | 57 | 96 | 0.0 | 0.0 | 0.00 | 0.00 | 0.00 | 81 | 1015.0 |
| 20260510010025 | 57 | 96 | 0.0 | 0.0 | 0.00 | 0.00 | 0.00 | 82 | 1015.1 |
| 20260510004524 | 57 | 96 | 0.0 | 0.0 | 0.00 | 0.00 | 0.00 | 82 | 1015.1 |
| 20260510003023 | 57 | 96 | 0.0 | 0.0 | 0.00 | 0.00 | 0.00 | 81 | 1015.3 |
| 20260510001533 | 57 | 96 | 0.0 | 0.0 | 0.00 | 0.00 | 0.00 | 82 | 1015.6 |
| 20260510000019 | 57 | 96 | 0.0 | 0.0 | 0.00 | 0.00 | 0.00 | 82 | 1015.8 |
| 20260509234517 | 57 | 96 | 0.0 | 0.0 | 0.00 | 0.00 | 0.00 | 81 | 1015.8 |
| 20260509233018 | 57 | 96 | 0.0 | 0.0 | 0.00 | 0.00 | 0.00 | 81 | 1016.0 |
| 20260509231516 | 57 | 96 | 0.0 | 0.0 | 0.00 | 0.00 | 0.00 | 81 | 1015.9 |
| 20260509230014 | 57 | 96 | 0.0 | 0.0 | 0.00 | 0.00 | 0.00 | 80 | 1015.9 |
| 20260509224514 | 57 | 96 | 0.0 | 0.0 | 0.00 | 0.00 | 0.00 | 80 | 1015.9 |
| 20260509223013 | 58 | 96 | 0.0 | 0.0 | 0.00 | 0.00 | 0.00 | 79 | 1015.9 |
| 20260509221510 | 59 | 96 | 0.0 | 0.0 | 0.00 | 0.00 | 0.00 | 78 | 1016.0 |
| 20260509220006 | 59 | 96 | 0.0 | 0.0 | 0.00 | 0.00 | 0.00 | 76 | 1016.0 |
| 20260509214506 | 60 | 96 | 0.0 | 0.0 | 0.00 | 0.00 | 0.00 | 75 | 1015.9 |
| 20260509213006 | 61 | 96 | 0.0 | 0.0 | 0.00 | 0.00 | 0.00 | 73 | 1016.0 |
| 20260509211505 | 61 | 96 | 0.0 | 0.0 | 0.00 | 0.00 | 0.00 | 70 | 1016.0 |
| 20260509210004 | 61 | 96 | 0.0 | 0.0 | 0.00 | 0.00 | 0.00 | 71 | 1016.1 |
| 20260509204505 | 62 | 96 | 0.0 | 0.0 | 0.00 | 0.00 | 0.00 | 70 | 1016.0 |
| 20260509203006 | 63 | 96 | 0.0 | 0.0 | 0.00 | 0.00 | 0.00 | 69 | 1016.0 |
| 20260509201503 | 63 | 96 | 0.0 | 0.0 | 0.00 | 0.00 | 0.00 | 69 | 1015.8 |
| 20260509200002 | 63 | 96 | 0.0 | 0.0 | 0.00 | 0.00 | 0.00 | 69 | 1015.6 |
| 20260509194501 | 64 | 96 | 0.0 | 0.0 | 0.00 | 0.00 | 0.00 | 67 | 1015.3 |
| 20260509193001 | 64 | 96 | 0.0 | 0.0 | 0.00 | 0.00 | 0.00 | 67 | 1015.2 |
| 20260509191501 | 65 | 96 | 0.0 | 0.0 | 0.00 | 0.00 | 0.00 | 66 | 1014.9 |
| 20260509190106 | 66 | 96 | 0.0 | 0.0 | 0.00 | 0.00 | 0.00 | 64 | 1014.7 |
| 20260509184559 | 67 | 96 | 0.0 | 0.0 | 0.00 | 0.00 | 0.00 | 62 | 1014.6 |
| 20260509183100 | 68 | 96 | 0.0 | 0.0 | 0.00 | 0.00 | 0.00 | 60 | 1014.6 |
| 20260509181605 | 69 | 96 | 0.0 | 0.0 | 0.00 | 0.00 | 0.00 | 56 | 1014.7 |
| 20260509180100 | 70 | 96 | 0.0 | 0.0 | 0.00 | 0.00 | 0.00 | 54 | 1014.6 |
| 20260509174605 | 70 | 96 | 0.0 | 0.0 | 0.00 | 0.00 | 0.00 | 55 | 1014.6 |
| 20260509173114 | 71 | 96 | 0.0 | 0.0 | 0.00 | 0.00 | 0.00 | 54 | 1014.4 |
| 20260509171604 | 71 | 96 | 0.0 | 3.0 | 0.00 | 0.00 | 0.00 | 54 | 1014.3 |
| 20260509170057 | 72 | 111 | 0.0 | 2.0 | 0.00 | 0.00 | 0.00 | 54 | 1014.3 |
| 20260509164555 | 71 | 113 | 0.0 | 1.0 | 0.00 | 0.00 | 0.00 | 53 | 1014.4 |
| 20260509163103 | 71 | 112 | 0.0 | 6.0 | 0.00 | 0.00 | 0.00 | 53 | 1014.6 |
| 20260509161552 | 71 | 70 | 0.0 | 5.0 | 0.00 | 0.00 | 0.00 | 54 | 1014.8 |
| 20260509160054 | 72 | 123 | 0.0 | 6.0 | 0.00 | 0.00 | 0.00 | 54 | 1014.9 |
| 20260509154559 | 73 | 105 | 0.0 | 6.0 | 0.00 | 0.01 | 0.00 | 51 | 1015.0 |
| 20260509153047 | 73 | 74 | 0.0 | 9.0 | 0.00 | 0.01 | 0.00 | 52 | 1015.1 |
| 20260509151546 | 73 | 138 | 2.0 | 12.0 | 0.00 | 0.01 | 0.00 | 53 | 1015.2 |
| 20260509150045 | 72 | 103 | 0.0 | 13.0 | 0.00 | 0.01 | 0.00 | 53 | 1015.4 |
| 20260509144601 | 72 | 129 | 1.0 | 10.0 | 0.00 | 0.01 | 0.00 | 54 | 1015.2 |
| 20260509143044 | 72 | 99 | 0.0 | 10.0 | 0.00 | 0.01 | 0.00 | 54 | 1015.2 |
| 20260509141543 | 72 | 126 | 0.0 | 10.0 | 0.00 | 0.01 | 0.00 | 54 | 1015.4 |
| 20260509140056 | 73 | 144 | 1.0 | 11.0 | 0.00 | 0.01 | 0.00 | 52 | 1015.6 |
| 20260509134538 | 73 | 127 | 0.0 | 7.0 | 0.00 | 0.01 | 0.00 | 52 | 1015.6 |
| 20260509133038 | 73 | 130 | 0.0 | 7.0 | 0.00 | 0.01 | 0.00 | 52 | 1015.8 |
| 20260509131548 | 72 | 56 | 0.0 | 11.0 | 0.00 | 0.01 | 0.00 | 52 | 1016.1 |
| 20260509130035 | 73 | 132 | 1.0 | 10.0 | 0.00 | 0.01 | 0.00 | 52 | 1016.2 |
| 20260509124538 | 73 | 117 | 0.0 | 9.0 | 0.00 | 0.01 | 0.00 | 54 | 1016.2 |
| 20260509123035 | 72 | 151 | 0.0 | 11.0 | 0.00 | 0.01 | 0.00 | 55 | 1016.4 |
| 20260509121547 | 72 | 126 | 1.0 | 9.0 | 0.00 | 0.01 | 0.00 | 55 | 1016.4 |
| 20260509120035 | 72 | 136 | 0.0 | 10.0 | 0.00 | 0.01 | 0.00 | 55 | 1016.4 |
| 20260509114533 | 72 | 130 | 0.0 | 11.0 | 0.00 | 0.01 | 0.00 | 55 | 1016.5 |
| 20260509113029 | 72 | 136 | 1.0 | 10.0 | 0.00 | 0.01 | 0.00 | 54 | 1016.7 |
| 20260509111528 | 72 | 129 | 1.0 | 11.0 | 0.00 | 0.01 | 0.00 | 50 | 1016.6 |
| 20260509110025 | 72 | 124 | 2.0 | 10.0 | 0.00 | 0.01 | 0.00 | 54 | 1016.7 |
| 20260509104523 | 72 | 135 | 0.0 | 8.0 | 0.00 | 0.01 | 0.00 | 52 | 1016.9 |
| 20260509103019 | 71 | 133 | 0.0 | 11.0 | 0.00 | 0.01 | 0.00 | 54 | 1017.2 |
| 20260509101520 | 71 | 154 | 1.0 | 15.0 | 0.00 | 0.01 | 0.00 | 57 | 1017.5 |
| 20260509100014 | 70 | 138 | 0.0 | 7.0 | 0.00 | 0.01 | 0.00 | 57 | 1017.6 |
| 20260509094513 | 71 | 110 | 1.0 | 8.0 | 0.00 | 0.01 | 0.00 | 55 | 1017.7 |
| 20260509093011 | 70 | 106 | 0.0 | 5.0 | 0.00 | 0.01 | 0.00 | 56 | 1017.7 |
| 20260509091508 | 69 | 119 | 0.0 | 6.0 | 0.00 | 0.01 | 0.00 | 58 | 1018.0 |
| 20260509090004 | 68 | 97 | 0.0 | 2.0 | 0.00 | 0.01 | 0.00 | 58 | 1018.2 |
| 20260509084501 | 67 | 10 | 0.0 | 2.0 | 0.00 | 0.01 | 0.00 | 58 | 1018.3 |
| 20260509083101 | 65 | 5 | 0.0 | 0.0 | 0.00 | 0.01 | 0.00 | 62 | 1018.4 |
| 20260509081553 | 63 | 360 | 0.0 | 1.0 | 0.00 | 0.01 | 0.00 | 65 | 1018.4 |
| 20260509080058 | 63 | 360 | 0.0 | 2.0 | 0.00 | 0.01 | 0.00 | 64 | 1018.4 |
| 20260509074548 | 61 | 360 | 0.0 | 0.0 | 0.00 | 0.01 | 0.00 | 69 | 1018.5 |
| 20260509073047 | 60 | 360 | 0.0 | 3.0 | 0.00 | 0.01 | 0.00 | 71 | 1018.6 |
| 20260509071540 | 58 | 27 | 0.0 | 5.0 | 0.00 | 0.01 | 0.00 | 71 | 1018.8 |
| 20260509070037 | 58 | 69 | 0.0 | 1.0 | 0.00 | 0.01 | 0.00 | 73 | 1018.7 |
| 20260509064535 | 57 | 69 | 0.0 | 0.0 | 0.00 | 0.01 | 0.00 | 77 | 1018.8 |
| 20260509063033 | 55 | 69 | 0.0 | 0.0 | 0.00 | 0.01 | 0.00 | 81 | 1019.0 |
| 20260509061528 | 53 | 69 | 0.0 | 0.0 | 0.00 | 0.01 | 0.00 | 83 | 1019.1 |
| 20260509060024 | 53 | 69 | 0.0 | 0.0 | 0.00 | 0.01 | 0.00 | 85 | 1019.2 |
| 20260509054525 | 52 | 69 | 0.0 | 0.0 | 0.00 | 0.12 | 0.00 | 86 | 1019.1 |
| 20260509053023 | 51 | 69 | 0.0 | 0.0 | 0.00 | 0.12 | 0.00 | 86 | 1019.1 |
| 20260509051523 | 51 | 69 | 0.0 | 0.0 | 0.00 | 0.12 | 0.00 | 86 | 1019.2 |